Location: Saluda
(35.2377°N, 82.3468°W)
Time: 16:58:49
(UTC+00:00)

Explorer 11/Cluster Stage 4 - Pass Details

Date: 07 October 2022
Orbit: 466 x 1247 km, 28.8° (Epoch: 08 December)

Event Time Altitude Azimuth Distance (km) Brightness Sun altitude
Rises 16:20:41 0° 254° (WSW) 4,129 10.2 47.0°
Reaches altitude 10° 16:23:37 10° 249° (WSW) 3,198 9.8 47.2°
Maximum altitude 16:31:32 54° 176° (S) 1,474 10.4 47.7°
Drops below altitude 10° 16:39:05 10° 102° (ESE) 3,053 10.0 48.1°
Sets 16:41:49 0° 97° (E) 3,930 10.3 48.2°
